Meteo Giornale » Osservazioni meteo Italia » Milano-Malpensa

ore: 03:20 - Osservazioni Meteo Milano-Malpensa
Lat. 45° 37' N Lon. 8° 44' E Alt. 234 metri s.l.m.

sereno Europe/Rome

15 °C

Sereno

Temp. 24 Ore

15 °C

21 °C

Nord

5.5 Km/h

Dew point 15 °C

Umidità 100 %

Visibilità  10 Km

Il sole sorge alle ore 06:12

Il sole tramonta alle ore 20:50

Data e Ora Cielo e Fenomeni T °C DP °C Um. % Pres. hPa Vis. km Vento km/h
Oggi h: 03:20 sereno Sereno 15 15 100 1009 10 N 5.5
Oggi h: 02:50 sereno Sereno 16 16 100 1009 10 N 9.3
Oggi h: 02:20 sereno Sereno 16 16 100 1009 10 N 11.1
Oggi h: 01:50 nuvoloso Nuvoloso 16 16 100 1009 10 N/NE 7.4
Oggi h: 01:20 molto_nuvoloso Molto Nuvoloso 17 17 100 1010 10 N 3.7
Oggi h: 00:50 coperto_pioggia Pioggia Debole 18 18 100 1010 10 N/NE 11.1
Oggi h: 00:20 molto_nuvoloso Molto Nuvoloso 17 17 100 1010 10 N 5.5
Ieri h: 23:50 molto_nuvoloso Molto Nuvoloso 18 18 100 1009 10 E 7.4
Ieri h: 23:20 coperto_pioggia Pioggia 18 18 100 1010 10 E 14.8
Ieri h: 22:50 coperto_pioggia Pioviggine Leggera 18 18 100 1010 10 N 13
Ieri h: 22:20 molto_nuvoloso Molto Nuvoloso 18 18 100 1010 10 N/NE 7.4
Ieri h: 21:50 molto_nuvoloso Molto Nuvoloso 18 18 100 1010 10 N 11.1
Ieri h: 21:20 coperto_pioggia Pioviggine 19 18 93 1009 10 N 7.4
Ieri h: 20:50 molto_nuvoloso Molto Nuvoloso 19 18 93 1010 10 N/NE 7.4
Ieri h: 20:20 molto_nuvoloso Molto Nuvoloso 19 19 100 1010 10 NE 7.4
Ieri h: 19:50 molto_nuvoloso Molto Nuvoloso 19 19 100 1010 10 N 9.3
Ieri h: 19:20 coperto_pioggia Pioggia Debole 19 19 100 1010 10 N 11.1
Ieri h: 18:50 molto_nuvoloso Molto Nuvoloso 19 18 93 1010 10 N 9.3
Ieri h: 18:20 molto_nuvoloso Molto Nuvoloso 18 18 100 1010 10 N/NE 11.1
Ieri h: 17:50 molto_nuvoloso Molto Nuvoloso 18 18 100 1010 10 N/NE 9.3
Ieri h: 17:20 coperto_pioggia Pioggia Debole 18 18 100 1011 8 N/NE 7.4
Ieri h: 16:50 coperto_pioggia Pioggia Debole 18 18 100 1011 6 N 11.1
Ieri h: 16:20 coperto_pioggia Pioggia 18 18 100 1011 3 N/NO 16.7
Ieri h: 15:50 coperto_pioggia Pioggia Debole 18 18 100 1011 6 N 13
Ieri h: 15:20 coperto_pioggia Pioggia Debole 18 18 100 1011 7 N/NO 13
Ieri h: 14:50 coperto_pioggia Pioggia 18 18 100 1011 4 NO 18.5
Ieri h: 14:20 coperto_pioggia Pioggia 19 18 93 1011 4 NO 16.7
Ieri h: 13:50 coperto_pioggia Pioggia 20 19 93 1012 8 N 5.5
Ieri h: 13:20 coperto_pioggia Pioggia 20 19 93 1012 6 N 5.5
Ieri h: 11:50 coperto_pioggia Pioviggine Leggera 20 19 93 1013 10 N 5.5
Ieri h: 11:20 molto_nuvoloso Molto Nuvoloso 21 18 82 1013 10 N 3.7
Ieri h: 10:50 coperto_pioggia Pioggia Debole 20 18 88 1013 10 N 3.7
Ieri h: 10:20 coperto_pioggia Pioggia 20 18 88 1013 10 E 7.4
Ieri h: 09:50 molto_nuvoloso Molto Nuvoloso 20 18 88 1013 10 N/NE 9.3
Ieri h: 09:20 molto_nuvoloso Molto Nuvoloso 20 18 88 1013 10 N 9.3
Ieri h: 08:50 molto_nuvoloso Molto Nuvoloso 19 18 93 1013 10 N 7.4
Ieri h: 08:20 molto_nuvoloso Molto Nuvoloso 19 18 93 1013 10 N 11.1
Ieri h: 07:50 molto_nuvoloso Molto Nuvoloso 19 18 93 1013 10 N/NE 9.3
Ieri h: 07:20 molto_nuvoloso Molto Nuvoloso 18 17 93 1013 10 N/NE 11.1
Ieri h: 06:50 molto_nuvoloso Molto Nuvoloso 18 17 93 1012 10 N 11.1
Ieri h: 06:20 molto_nuvoloso Molto Nuvoloso 18 17 93 1012 10 N 13
Ieri h: 05:50 molto_nuvoloso Molto Nuvoloso 18 17 93 1012 10 N/NE 9.3
Ieri h: 05:20 molto_nuvoloso Molto Nuvoloso 18 17 93 1012 10 N 11.1
Ieri h: 04:50 molto_nuvoloso Molto Nuvoloso 18 18 100 1013 10 N 9.3